{"data":{"norad_id":63982,"epoch":"2026-05-24T18:16:40.556064Z","epoch_age_seconds":85874,"freshness":"FRESH","line1":"1 63982U 25100A   26144.76158051  .00004080  00000+0  19099-3 0  9998","line2":"2 63982  97.3675 218.0864 0030580  87.8153 272.6583 15.19876603 57083","mean_motion":15.19876603,"eccentricity":0.003058,"inclination_deg":97.3675,"raan_deg":218.0864,"arg_perigee_deg":87.8153,"mean_anomaly_deg":272.6583,"bstar":0.00019099,"rev_number":5708,"period_min":94.744533678436,"perigee_km":485.16086714056,"apogee_km":527.26555302543,"semimajor_km":6884.350210083,"source":"CELESTRAK","updated_at":"2026-05-25T13:38:04.126777Z"}}